Location: Charlottetown
(46.2330°N, 63.1330°W)
Time: 19:17:54
(UTC-03:00)

Daily predictions for brighter satellites

Satellite Brightness Start Highest point End
(mag) Time Altitude Azimuth Time Altitude Azimuth Time Altitude Azimuth
Ariane Rocket 3.7 18:43:10 10° S 18:48:11 62° WSW 18:53:17 10° NNW
Cosmos 2333 Rocket 4.0 18:47:09 10° N 18:49:53 13° NE 18:52:35 10° ENE
Cosmos 921 Rocket 4.4 18:48:56 10° N 18:52:22 21° ENE 18:55:44 10° ESE
Cosmos 1315 Rocket 4.3 18:49:31 10° NNE 18:52:23 18° ENE 18:55:16 10° ESE
Cosmos 2056 Rocket 3.5 18:48:29 10° NNW 18:53:50 66° ENE 18:59:03 10° SSE
Cosmos 2360 Rocket 2.7 18:49:31 10° NNW 18:54:48 38° NE 19:00:04 10° ESE
Cosmos 2082 Rocket 3.9 18:50:11 10° WSW 18:55:16 32° NW 19:00:23 10° NNE
Cosmos 1980 Rocket 4.1 18:51:05 10° NW 18:56:14 36° WSW 19:01:21 10° S
Cosmos 1461 2.9 18:56:37 10° SSW 19:00:34 61° ESE 19:04:44 10° NE
Cosmos 2322 Rocket 2.2 18:55:24 10° NNW 19:01:03 90° WSW 19:06:41 10° SSE
Cosmos 2058 3.6 18:57:59 10° N 19:01:50 33° ENE 19:05:38 10° SE
NOAA 12 4.4 18:56:59 10° SE 19:02:00 45° ENE 19:07:03 10° N
SL-24 R/B - RUBIN 2 4.3 18:59:19 10° NNW 19:04:07 39° NE 19:08:25 10° ESE
COSMO-SKYMED 1 2.8 19:00:48 10° NNE 19:05:02 49° E 19:09:14 10° S
Cosmos 2218 Rocket 4.0 18:59:04 10° S 19:05:05 61° E 19:11:08 10° NNE
RESURS DK-1 3.2 19:02:45 10° N 19:06:30 32° NE 19:10:14 10° ESE
Meteor 1-11 4.3 19:01:33 10° N 19:07:22 70° ENE 19:13:05 10° SSE
USA 267 4.5 19:02:56 10° ENE 19:07:42 21° ESE 19:12:27 10° S
Meteor 2-15 Rocket 4.4 19:01:44 10° N 19:07:51 85° E 19:13:59 10° S
Aureole 1 Rocket 3.8 19:02:25 10° S 19:09:01 64° ESE 19:14:02 10° NNE
Cosmos 1626 2.3 19:06:39 10° N 19:10:19 51° ENE 19:13:58 10° SSE
Cosmos 1452 Rocket 4.0 19:06:42 10° N 19:11:40 40° ENE 19:16:36 10° SE
Cosmos 1408 Rocket 4.0 19:09:36 10° NNW 19:14:01 67° W 19:18:26 10° S
Cosmos 1727 Rocket 4.1 19:07:43 10° N 19:14:02 61° ENE 19:20:18 10° SSE
deb Kosmos-1763 4.1 19:10:53 10° SSW 19:14:41 76° ESE 19:18:32 10° NNE
ATLAS 5 CENTAUR R/B 4.2 19:12:16 10° WNW 19:15:27 16° NNW 19:18:49 10° NNE
Atlas Centaur 2 4.1 19:14:31 10° SSW 19:17:10 14° S 19:20:06 10° SE
Lacrosse 5 rocket 2.5 19:13:03 10° WSW 19:17:22 43° NNW 19:21:28 10° NE
EO 1 Del DPAF 3.2 19:13:36 10° NNE 19:17:29 85° ESE 19:21:20 10° SSW
Cosmos 2322 4.0 19:14:35 10° NNW 19:20:08 48° ENE 19:25:39 10° SE
DELTA 2 R/B (1) 4.4 19:15:12 10° WSW 19:20:26 43° S 19:25:09 13° ESE
Cosmos 1328 4.4 19:16:57 10° NNW 19:20:55 63° W 19:24:48 10° S
SJ-6B 3.9 19:19:30 12° ESE 19:22:05 22° ENE 19:25:01 10° NNE
Gbstr 26 Del rocket 3.9 19:18:40 10° WNW 19:23:20 50° NNE 19:27:56 16° E
Meteor 1-16 Rocket 4.2 19:19:57 10° SSW 19:25:15 82° WNW 19:30:38 10° N
CZ-4C R/B 3.9 19:26:07 10° SE 19:27:00 11° ESE 19:27:00 11° ESE
YAOGAN 1 3.9 19:28:44 10° S 19:32:51 43° W 19:37:00 10° NNW
ALOS 2.2 19:28:12 10° SSE 19:32:52 75° ENE 19:37:33 10° N
SL-08 R/B 4.4 19:28:21 10° S 19:34:32 85° E 19:40:41 10° N
FENGYUN 3A 3.6 19:29:16 10° SSE 19:34:39 76° ENE 19:40:04 10° N
GP-B 3.3 19:30:50 10° N 19:35:17 76° W 19:39:43 10° S
Cosmos 1703 3.2 19:35:23 10° N 19:39:21 89° E 19:43:16 10° S
CZ-4 R/B 4.1 19:38:01 10° SSW 19:41:30 25° W 19:44:58 10° NW
Abrixas rocket 2.1 19:41:31 10° WSW 19:44:48 87° S 19:46:10 33° ENE
USA 234 3.9 19:40:40 18° ENE 19:45:09 42° NNE 19:51:15 10° NW
Cosmos 2219 Rocket 3.1 19:40:33 10° N 19:45:25 29° NE 19:47:32 23° E
Aureole 2 Rocket 4.3 19:43:18 10° N 19:45:37 19° NE 19:45:37 19° NE
Cosmos 1400 Rocket 3.4 19:44:20 10° NNW 19:48:21 59° W 19:52:17 10° S
Thor Agena Rocket 3.5 19:45:14 10° NNE 19:50:17 55° ESE 19:55:15 10° S
SKYMED 2 4.4 19:48:50 10° N 19:53:05 53° WNW 19:57:17 10° SSW
SL-16 R/B 3.9 19:49:17 10° NW 19:54:23 35° WSW 19:59:28 10° S
Cosmos 2333 4.5 19:50:05 10° NNW 19:55:38 49° ENE 19:58:47 24° ESE
Cosmos 2237 4.2 19:50:04 10° NNW 19:55:49 72° ENE 20:00:54 13° SE
BREEZE-M DEB (TANK) 3.4 19:44:22 10° W 19:56:03 87° S 19:58:14 30° E
Cosmos 1420 Rocket 3.9 19:53:55 10° NNW 19:59:16 73° ENE 20:04:05 12° SSE
Iridium 4 Rocket 3.6 19:56:59 10° S 20:02:23 68° E 20:08:11 10° N
Cosmos 2151 3.9 19:59:53 10° NNW 20:04:03 50° W 20:08:10 10° S
Cosmos 1908 3.1 20:00:44 10° S 20:04:39 79° E 20:08:35 10° NNE
Envisat 3.6 20:06:03 33° E 20:06:43 35° ENE 20:11:18 10° N
Cosmos 1842 Rocket 4.5 20:06:01 10° SSW 20:10:22 51° WNW 20:14:44 10° N
H-2A R/B 2.8 20:08:07 10° S 20:11:59 81° WSW 20:15:55 10° NNW
Resurs 01 Rocket 2.1 20:12:24 39° ENE 20:12:24 39° ENE 20:16:19 10° N
Cosmos 2237 Rocket 3.2 20:08:33 10° N 20:13:26 28° NE 20:13:50 28° ENE
GENESIS II 4.1 20:12:43 10° SSW 20:16:39 63° ESE 20:16:43 62° ESE
SL-16 R/B 3.9 20:17:27 10° N 20:20:51 17° NE 20:20:51 17° NE
Cosmos 1535 Rocket 4.4 20:15:05 10° S 20:21:07 63° E 20:27:10 10° NNE
Cosmos 2221 2.5 20:17:47 10° S 20:22:06 82° W 20:26:29 10° N
FREGAT/IRIS 4.1 20:23:45 20° SSW 20:25:20 37° W 20:28:10 10° NNW
CZ-2D R/B 3.4 20:26:21 58° NNE 20:26:21 58° NNE 20:29:40 10° N
Cosmos 1315 Rocket 4.2 20:25:21 10° NNW 20:29:09 40° W 20:32:59 10° SSW
Cosmos 158 Rocket 3.8 20:25:08 10° SSW 20:30:09 77° ESE 20:35:21 10° NNE
Resurs 1-3 3.9 20:31:05 49° NNE 20:31:05 49° NNE 20:34:40 10° N
Cosmos 921 Rocket 4.0 20:26:38 10° NNW 20:30:55 46° WSW 20:34:56 11° S
COSMOS 2428 2.6 20:26:08 10° NNW 20:31:51 90° WSW 20:34:16 37° SSE
Cosmos 2333 Rocket 2.3 20:29:52 10° NNW 20:35:31 55° ENE 20:36:00 53° ENE
Cosmos 1269 Rocket 3.9 20:30:52 10° S 20:36:03 63° ESE 20:36:21 62° E
Cosmos 1980 4.2 20:31:03 10° NNW 20:36:08 40° NE 20:36:08 40° NE
HJ-1C 4.3 20:36:21 48° WSW 20:36:35 49° W 20:39:56 10° NNW
MOS 1-B Rocket 3.7 20:35:00 33° SSE 20:37:42 81° ENE 20:43:44 10° NNW
Cosmos 2360 Rocket 3.6 20:33:37 10° NW 20:38:47 37° WSW 20:43:56 10° S
Cosmos 2098 Rocket 3.4 20:37:54 10° SSW 20:42:07 74° W 20:47:35 10° N
RESURS DK-1 4.3 20:40:57 10° NW 20:44:28 27° WSW 20:47:05 15° SSW
Cosmos 2219 3.1 20:40:18 10° SSW 20:45:35 63° SE 20:45:35 63° SE
NOSS 0 Rocket 3.8 20:41:56 10° NNW 20:48:05 64° ENE 20:48:32 62° E
USA 267 3.1 20:49:38 50° ENE 20:51:26 74° SE 20:57:58 10° SW
Cosmos 1821 Rocket 4.2 20:46:57 10° SSW 20:53:03 69° W 20:59:19 10° N
H-2A R/B 4.4 20:59:03 11° NNE 20:59:03 11° NNE 20:59:24 10° NNE
BREEZE M DEB (TANK) 3.9 20:40:27 10° WNW 20:56:43 89° S 20:57:34 68° ESE
SL-8 R/B 4.1 20:52:36 10° WSW 20:56:27 56° SW 20:56:27 56° SW
Lacrosse 5 rocket 3.4 20:54:13 10° WNW 20:57:28 20° N 20:57:43 20° N
Sich 1 3.6 20:54:27 10° NNW 20:58:06 55° NW 20:58:06 55° NW
ATLAS 5 CENTAUR R/B 4.4 20:59:46 10° NNW 21:02:27 14° N 21:03:31 13° NNE
Cosmos 1934 Rocket 4.1 20:56:07 10° SSW 21:02:28 77° W 21:08:53 10° N
Atlas Centaur 2 4.3 21:01:51 10° SW 21:04:35 15° SSW 21:04:35 15° SSW
Gbstr 26 Del rocket 3.7 21:05:23 10° WNW 21:10:30 78° WSW 21:10:30 78° WSW
Spot 2 Rocket 3.8 21:11:22 65° WNW 21:11:22 65° WNW 21:16:02 10° NNW
CZ-4C R/B 3.6 21:10:10 10° SSW 21:12:17 26° SSW 21:12:17 26° SSW
Cosmos 1110 Rocket 4.5 21:11:36 10° NNW 21:15:50 57° NNW 21:15:50 57° NNW
Cosmos 2123 Rocket 4.4 21:12:05 10° NNW 21:18:10 59° W 21:20:47 34° SSW
Cosmos 1605 Rocket 4.1 21:27:39 68° NW 21:27:39 68° NW 21:33:12 10° N
USA 234 3.2 21:28:02 83° NNW 21:28:02 83° NNW 21:34:23 10° NW
Cosmos 2219 Rocket 2.8 21:24:13 10° NW 21:29:17 51° W 21:29:17 51° W
Resurs 01 Rocket 4.0 21:50:00 20° WNW 21:50:00 20° WNW 21:52:19 10° NW
Cosmos 2237 Rocket 3.6 21:52:15 10° NNW 21:55:40 36° NW 21:55:40 36° NW
SL-16 R/B 4.0 22:00:29 10° NNW 22:02:44 25° NNW 22:02:44 25° NNW
Cosmos 2333 Rocket 4.2 22:14:46 10° NW 22:18:02 23° W 22:18:02 23° W
